This demonstration page uses our WeatherBlox Daily Observations layout. Learn more.

Left ArrowRight Arrow

39.29038, -76.61219

Hourly Observations for February 14, 2021

Temp ( °F °C ) Dew Point ( °F °C ) Humidity (%) Winds ( mph kmh ) Pressure ( in mb ) Visibility ( mi km ) Precip ( " mm )
12:30 am 00:30 Cloudy with Light Freezing Drizzle 28 -2.2 25 -3.9 88 88 VRB 3 6 30.17 1022 3 5 0.00 0.00
12:54 am 00:54 Cloudy with Light Freezing Drizzle 28 -2.2 25 -3.9 88 88 NNE 6 9 30.16 1022 4 6 0.00 0.00
1:18 am 01:18 Cloudy with Mist and Fog 28 -2.2 24 -4.4 85 85 N 6 9 30.18 1022 6 10 0.00 0.00
1:54 am 01:54 Cloudy with Mist and Fog 28 -2.2 25 -3.9 88 88 N 3 6 30.16 1021 4 6 0.00 0.00
2:54 am 02:54 Cloudy with Mist and Fog 28 -2.2 25 -3.9 88 88 NNW 6 9 30.17 1022 3 5 N/A
3:14 am 03:14 Cloudy with Mist and Fog 28 -2.2 25 -3.9 88 88 NNW 6 9 30.18 1022 2 3 N/A
3:24 am 03:24 Cloudy with Mist and Fog 28 -2.2 25 -3.9 88 88 N 3 6 30.18 1022 2 3 N/A
3:54 am 03:54 Cloudy with Mist and Fog 28 -2.2 25 -3.9 88 88 NNW 5 7 30.17 1022 2 3 N/A
4:35 am 04:35 Cloudy with Mist and Fog 28 -2.2 25 -3.9 88 88 N N/A 30.18 1022 2 3 N/A
4:45 am 04:45 Cloudy with Light Freezing Drizzle 28 -2.2 26 -3.3 92 92 VRB 3 6 30.18 1022 2 3 0.00 0.00
4:54 am 04:54 Cloudy with Light Freezing Drizzle 28 -2.2 26 -3.3 92 92 N 3 6 30.18 1022 2 3 0.00 0.00
5:54 am 05:54 Cloudy with Light Freezing Drizzle 29 -1.7 26 -3.3 89 89 N 5 7 30.20 1023 2 3 0.00 0.00
6:28 am 06:28 Cloudy with Light Freezing Drizzle 28 -2.2 26 -3.3 92 92 N 5 7 30.21 1023 3 4 0.00 0.00
6:54 am 06:54 Cloudy with Light Freezing Drizzle 28 -2.2 25 -3.9 88 88 NNW 6 9 30.22 1024 3 4 0.00 0.00
7:39 am 07:39 Cloudy with Mist and Fog 29 -1.7 26 -3.3 89 89 NNW 5 7 30.25 1024 3 4 0.00 0.00
7:54 am 07:54 Cloudy with Mist and Fog 29 -1.7 26 -3.3 89 89 NW 6 9 30.24 1024 3 4 0.00 0.00
8:54 am 08:54 Cloudy with Mist and Fog 30 -1.1 27 -2.8 88 88 N 5 7 30.25 1024 3 4 N/A
9:30 am 09:30 Cloudy with Mist and Fog 31 -0.6 27 -2.8 85 85 NW 3 6 30.28 1025 3 5 N/A
9:54 am 09:54 Cloudy with Mist and Fog 31 -0.6 27 -2.8 85 85 VRB 6 9 30.27 1025 3 5 N/A
10:52 am 10:52 Cloudy with Mist and Fog 32 undefined 28 -2 87 87 N 6 9 30.28 1025 5 8 N/A
10:54 am 10:54 Cloudy with Mist and Fog 32 undefined 28 -2.2 85 85 NNE 5 7 30.27 1025 5 8 N/A
11:36 am 11:36 Cloudy with Haze 33 0.6 28 -2.2 82 82 NW 6 9 30.28 1025 6 10 N/A
11:54 am 11:54 Cloudy with Haze 34 1.1 28 -2.2 79 79 NNW 3 6 30.27 1025 6 10 N/A
12:54 pm 12:54 Cloudy with Haze 35 1.7 30 -1.1 82 82 N N/A 30.24 1024 6 10 N/A
1:16 pm 13:16 Cloudy with Haze 36 2.2 30 -1.1 79 79 N N/A 30.24 1024 5 8 N/A
1:54 pm 13:54 Cloudy with Haze 37 2.8 29 -1.7 73 73 NNE 3 6 30.23 1024 6 10 N/A
2:54 pm 14:54 Cloudy 37 2.8 29 -1.7 73 73 N 7 11 30.22 1023 10 16 N/A
3:54 pm 15:54 Cloudy 37 2.8 27 -2.8 67 67 NNW 7 11 30.22 1023 10 16 N/A
4:54 pm 16:54 Cloudy 37 2.8 26 -3.3 65 65 VRB 6 9 30.21 1023 8 13 N/A
5:54 pm 17:54 Cloudy 37 2.8 26 -3.3 65 65 NNE 7 11 30.22 1023 8 13 N/A
6:54 pm 18:54 Cloudy 37 2.8 26 -3.3 65 65 NNE 3 6 30.25 1025 8 13 N/A
7:54 pm 19:54 Cloudy with Haze 35 1.7 30 -1.1 82 82 ESE 5 7 30.24 1024 6 10 N/A
8:54 pm 20:54 Cloudy 36 2.2 27 -2.8 70 70 VRB 3 6 30.23 1024 7 11 N/A
9:54 pm 21:54 Cloudy 36 2.2 27 -2.8 70 70 NE 5 7 30.23 1024 8 13 N/A
10:54 pm 22:54 Cloudy with Haze 36 2.2 27 -2.8 70 70 NNE 5 7 30.22 1023 6 10 N/A
11:54 pm 23:54 Cloudy 36 2.2 27 -2.8 70 70 NNW 5 7 30.22 1023 10 16 N/A

Powered by AerisWeather